Location: Orange Harbor Mobile Home Park
(26.6923°N, 81.7937°W)
Time: 22:22:32
(UTC+00:00)

Cosmos 1437 - Pass Details

Date: 19 September 2020
Orbit: 365 x 369 km, 81.2° (Epoch: 25 October)

Event Time Altitude Azimuth Distance (km) Brightness Sun altitude
Rises 00:19:09 0° 2° (N) 2,243 6.5 -12.3°
Reaches altitude 10° 00:21:14 10° 11° (NNE) 1,388 5.4 -12.8°
Maximum altitude 00:24:03 37° 81° (E) 606 3.0 -13.4°
Enters shadow 00:25:27 23° 134° (SE) 862 3.9 -13.7°
